Simultaneous Nadir Overpasses (SNOs) Predictions

Prediction of SNOs between AQUA and METOP-B Satellite Orbit:

Table of predicted SNOs for the next 14.0 days since TLE Epoch: 1/23/2015
Index Date (AQUA) Time (AQUA) Lat,Lon (AQUA) SZA (AQUA ) Date (METOP-B) Time (METOP-B) Lat,Lon (METOP-B) SZA (METOP-B ) Distance(km) Time Diff (sec)
1 01/23/2015 10:16:22 73.67, 20.52 93.21 01/23/2015 10:15:16 73.68, 20.48 93.23 1.93 66
2 01/23/2015 11:05:49 -73.75,-172.00 86.72 01/23/2015 11:05:56 -73.75,-172.02 86.72 1.01 7
3 01/23/2015 11:55:19 73.92, -4.76 93.46 01/23/2015 11:56:31 73.96, -4.20 93.47 17.68 72
4 01/26/2015 05:50:39 73.71, 86.87 92.57 01/26/2015 05:49:38 73.68, 86.89 92.56 2.80 61
5 01/26/2015 06:40:06 -73.78,-105.65 87.36 01/26/2015 06:40:18 -73.76,-105.61 87.39 3.04 12
6 01/26/2015 07:29:41 74.17, 61.11 93.05 01/26/2015 07:30:50 74.16, 62.71 92.97 48.39 69
7 01/29/2015 01:24:55 73.68, 153.38 91.81 01/29/2015 01:24:01 73.68, 153.30 91.83 2.62 54
8 01/29/2015 02:14:22 -73.75, -39.13 88.12 01/29/2015 02:14:41 -73.76, -39.20 88.11 2.39 19
9 01/29/2015 03:04:02 74.39, 127.02 92.58 01/29/2015 03:05:08 74.40, 129.74 92.47 81.35 66
10 01/31/2015 20:59:12 73.73,-140.29 91.10 01/31/2015 20:58:23 73.72,-140.19 91.11 3.14 49
11 01/31/2015 21:48:39 -73.79, 27.20 88.84 01/31/2015 21:49:03 -73.80, 27.31 88.84 3.33 24
12 02/03/2015 16:33:26 73.71, -73.81 90.28 02/03/2015 16:32:45 73.71, -73.82 90.29 0.35 41
13 02/03/2015 17:22:53 -73.77, 93.70 89.67 02/03/2015 17:23:25 -73.78, 93.69 89.66 1.57 32




NCC Satellite Simultaneous Nadir Overpasses (SNOs) Prediction Service
